KC5AYO Weather Reports


Display with metric or nautical units.
time (UTC)temp
F
wind
direction
speed
MPH
gust
MPH
rain 1hr
in
rain 24hr
in
rain mn
in
humidity
%
barometer
mb
20260510153551 63 86 1.0 3.0 0.00 0.01 0.01 49 1015.8
20260510153050 63 9 0.0 3.0 0.00 0.01 0.01 49 1015.9
20260510152552 63 13 0.0 3.0 0.00 0.01 0.01 50 1015.8
20260510152049 63 82 1.0 3.0 0.00 0.01 0.01 53 1015.8
20260510151550 63 46 0.0 4.0 0.00 0.01 0.01 50 1015.5
20260510151046 63 9 1.0 4.0 0.00 0.01 0.01 52 1015.7
20260510150548 62 5 1.0 4.0 0.00 0.01 0.01 51 1015.7
20260510150046 62 360 0.0 4.0 0.00 0.01 0.01 51 1015.6
20260510145544 62 5 1.0 3.0 0.00 0.01 0.01 53 1015.4
20260510145043 62 62 0.0 4.0 0.00 0.01 0.01 53 1015.5
20260510144542 62 355 1.0 4.0 0.00 0.01 0.01 51 1015.5
20260510144043 62 82 1.0 4.0 0.00 0.01 0.01 55 1015.3
20260510143541 62 89 1.0 4.0 0.00 0.01 0.01 56 1015.4
20260510143042 61 9 0.0 4.0 0.00 0.01 0.01 54 1015.4
20260510142541 61 86 1.0 4.0 0.00 0.01 0.01 53 1015.4
20260510142045 61 79 2.0 4.0 0.00 0.01 0.01 54 1015.3
20260510141540 61 83 0.0 3.0 0.00 0.01 0.01 56 1015.3
20260510141039 60 41 0.0 3.0 0.00 0.01 0.01 56 1015.2
20260510140538 60 17 0.0 3.0 0.00 0.01 0.01 61 1015.2
20260510140037 60 79 0.0 3.0 0.00 0.01 0.01 62 1015.2
20260510135537 60 15 0.0 3.0 0.00 0.01 0.01 63 1015.1
20260510135036 60 9 0.0 3.0 0.00 0.01 0.01 64 1015.1
20260510134536 60 51 0.0 2.0 0.00 0.01 0.01 62 1015.1
20260510134035 60 21 0.0 2.0 0.00 0.01 0.01 64 1015.1
20260510133534 60 73 0.0 2.0 0.00 0.01 0.01 63 1015.1
20260510133039 60 56 0.0 3.0 0.00 0.01 0.01 63 1015.0
20260510132533 60 68 0.0 5.0 0.00 0.01 0.01 65 1014.9
20260510132032 60 5 0.0 3.0 0.00 0.01 0.01 62 1014.9
20260510131531 60 329 0.0 3.0 0.00 0.01 0.01 64 1014.8
20260510131029 59 78 1.0 3.0 0.00 0.01 0.01 63 1014.7
20260510130528 59 80 0.0 5.0 0.00 0.01 0.01 64 1014.4
20260510130027 59 56 0.0 5.0 0.00 0.01 0.01 66 1014.3
20260510125528 59 5 0.0 3.0 0.00 0.01 0.01 68 1014.1
20260510125024 58 67 0.0 2.0 0.00 0.01 0.01 69 1014.0
20260510124524 58 5 0.0 3.0 0.00 0.01 0.01 69 1013.9
20260510124027 58 9 1.0 3.0 0.00 0.01 0.01 71 1013.8
20260510123523 58 76 0.0 2.0 0.00 0.01 0.01 70 1013.7
20260510123021 58 36 0.0 2.0 0.00 0.01 0.01 71 1013.7
20260510122524 57 36 0.0 2.0 0.00 0.01 0.01 73 1013.6
20260510122020 57 5 0.0 2.0 0.00 0.01 0.01 72 1013.6
20260510121519 57 5 0.0 1.0 0.00 0.01 0.01 74 1013.5
20260510121018 57 5 0.0 2.0 0.00 0.01 0.01 72 1013.5
20260510120517 57 338 0.0 2.0 0.00 0.01 0.01 72 1013.2
20260510120022 57 355 0.0 2.0 0.00 0.01 0.01 73 1013.2
20260510115516 57 349 0.0 2.0 0.00 0.01 0.01 73 1013.1
20260510115015 57 341 0.0 2.0 0.00 0.01 0.01 72 1013.0
20260510114521 57 360 0.0 2.0 0.00 0.01 0.01 73 1013.0
20260510114013 57 360 0.0 4.0 0.00 0.01 0.01 73 1012.7
20260510113511 56 355 0.0 3.0 0.00 0.01 0.01 74 1012.6
20260510113011 56 360 0.0 2.0 0.00 0.01 0.01 75 1012.5
20260510112510 56 5 0.0 2.0 0.00 0.01 0.01 75 1012.3
20260510112010 56 5 0.0 1.0 0.00 0.01 0.01 76 1012.3
20260510111509 56 5 0.0 2.0 0.00 0.01 0.01 75 1012.2
20260510111008 56 5 0.0 2.0 0.00 0.01 0.01 75 1012.1
20260510110510 56 5 0.0 2.0 0.00 0.01 0.01 75 1012.0
20260510110008 56 5 0.0 2.0 0.00 0.01 0.01 76 1011.9
20260510105506 57 5 0.0 2.0 0.00 0.01 0.01 75 1011.7
20260510105008 56 5 0.0 1.0 0.00 0.01 0.01 77 1011.7
20260510104508 57 5 0.0 2.0 0.00 0.01 0.01 75 1011.7
20260510104005 57 360 0.0 2.0 0.01 0.01 0.01 77 1011.5
20260510103505 57 19 0.0 2.0 0.01 0.01 0.01 77 1011.3
20260510103006 57 69 0.0 2.0 0.01 0.01 0.01 76 1011.2
20260510102505 57 77 0.0 2.0 0.01 0.01 0.01 76 1011.0
20260510102004 57 5 0.0 2.0 0.01 0.01 0.01 78 1010.9
20260510101505 58 5 0.0 2.0 0.01 0.01 0.01 78 1010.8
20260510101004 58 360 0.0 3.0 0.01 0.01 0.01 77 1010.7
20260510100504 58 9 0.0 3.0 0.01 0.01 0.01 80 1010.6
20260510100007 58 30 0.0 2.0 0.01 0.02 0.01 81 1010.6
20260510095503 58 22 0.0 3.0 0.01 0.02 0.01 82 1010.9
20260510095003 59 351 1.0 3.0 0.01 0.02 0.01 83 1010.9
20260510094508 59 82 0.0 2.0 0.01 0.02 0.01 84 1010.8
20260510094002 59 350 0.0 2.0 0.00 0.01 0.00 83 1011.1
20260510093502 60 355 0.0 3.0 0.00 0.01 0.00 81 1011.2
20260510093003 60 350 0.0 3.0 0.00 0.01 0.00 80 1011.5
20260510092503 60 355 0.0 2.0 0.00 0.01 0.00 79 1011.2
20260510092002 60 355 0.0 2.0 0.00 0.01 0.00 80 1011.6
20260510091506 60 118 0.0 3.0 0.00 0.01 0.00 81 1011.9
20260510091002 59 355 0.0 3.0 0.00 0.01 0.00 83 1012.0
20260510090601 59 222 0.0 2.0 0.00 0.01 0.00 83 1012.2
20260510085602 58 69 0.0 2.0 0.00 0.06 0.00 85 1011.2
20260510085057 57 17 0.0 0.0 0.00 0.06 0.00 88 1011.1
20260510084558 57 126 0.0 0.0 0.00 0.06 0.00 89 1010.7
20260510084055 57 126 0.0 0.0 0.00 0.06 0.00 89 1010.6
20260510083555 57 126 0.0 0.0 0.00 0.06 0.00 89 1010.4
20260510083056 57 127 0.0 0.0 0.00 0.06 0.00 88 1010.4
20260510082553 57 127 0.0 0.0 0.00 0.06 0.00 88 1010.3
20260510082053 57 127 0.0 0.0 0.00 0.06 0.00 87 1010.2
20260510081553 57 127 0.0 0.0 0.00 0.06 0.00 86 1010.2
20260510081050 57 127 0.0 0.0 0.00 0.06 0.00 85 1009.9
20260510080649 57 127 0.0 0.0 0.00 0.06 0.00 85 1009.9
20260510080048 57 127 0.0 0.0 0.00 0.06 0.00 85 1009.8
20260510075547 57 127 0.0 0.0 0.00 0.17 0.00 85 1009.7
20260510075049 58 127 0.0 0.0 0.00 0.17 0.00 85 1009.6
20260510074546 58 127 0.0 0.0 0.00 0.17 0.00 85 1009.6
20260510074046 58 127 0.0 0.0 0.00 0.17 0.00 84 1009.7
20260510073545 58 127 0.0 0.0 0.00 0.17 0.00 83 1009.7
20260510073102 59 127 0.0 0.0 0.00 0.17 0.00 82 1009.5
20260510072545 59 126 0.0 0.0 0.00 0.17 0.00 82 1009.5
20260510072045 59 126 0.0 0.0 0.00 0.17 0.00 82 1009.5
20260510071556 59 126 0.0 0.0 0.00 0.17 0.00 80 1009.3
20260510071043 60 52 0.0 1.0 0.00 0.17 0.00 81 1009.4
20260510070544 59 58 0.0 2.0 0.00 0.17 0.00 82 1009.3
20260510070045 59 130 0.0 2.0 0.00 0.17 0.00 84 1009.3
20260510065546 58 176 0.0 0.0 0.00 0.24 0.00 84 1009.2
20260510065042 58 176 0.0 0.0 0.00 0.24 0.00 84 1009.0
20260510064553 58 176 0.0 0.0 0.00 0.24 0.00 84 1009.1
20260510064041 58 176 0.0 0.0 0.00 0.24 0.00 84 1009.1
20260510063542 58 176 0.0 0.0 0.00 0.24 0.00 84 1009.1
20260510063046 58 176 0.0 0.0 0.00 0.24 0.00 84 1009.2
20260510062541 58 176 0.0 0.0 0.00 0.24 0.00 84 1009.3
20260510062044 58 176 0.0 0.0 0.00 0.24 0.00 83 1009.2
20260510061540 59 176 0.0 0.0 0.00 0.24 0.00 83 1009.3
20260510061041 58 176 0.0 0.0 0.00 0.24 0.00 84 1009.4
20260510060538 59 176 0.0 0.0 0.00 0.24 0.00 84 1009.4
20260510060038 59 176 0.0 0.0 0.00 0.24 0.00 82 1009.4
20260510055537 59 176 0.0 0.0 0.00 0.26 0.00 82 1009.4
20260510055041 59 176 0.0 0.0 0.00 0.26 0.00 82 1009.4
20260510054537 59 176 0.0 0.0 0.00 0.26 0.00 82 1009.5
20260510054036 59 176 0.0 0.0 0.00 0.26 0.00 81 1009.6
20260510053536 59 176 0.0 0.0 0.00 0.26 0.00 81 1009.5
20260510053037 60 176 0.0 0.0 0.00 0.26 0.00 80 1009.5
20260510052533 60 176 0.0 0.0 0.00 0.26 0.00 79 1009.6
20260510052037 60 176 0.0 0.0 0.00 0.26 0.00 79 1009.5
20260510051537 61 176 0.0 0.0 0.00 0.26 0.00 78 1009.5
20260510051032 61 176 0.0 0.0 0.00 0.26 0.00 78 1009.5
20260510050535 61 176 0.0 0.0 0.00 0.26 0.00 78 1009.4
20260510050032 61 176 0.0 0.0 0.00 0.26 0.00 78 1009.4
20260510045533 60 176 0.0 0.0 0.00 0.28 0.00 79 1009.3
20260510045035 60 176 0.0 0.0 0.00 0.28 0.00 79 1009.3
20260510044544 60 176 0.0 0.0 0.00 0.28 0.00 80 1009.4
20260510044031 60 176 0.0 0.0 0.00 0.28 0.00 80 1009.4
20260510043531 60 176 0.0 0.0 0.00 0.28 0.00 80 1009.3
20260510043030 60 176 0.0 0.0 0.00 0.28 0.00 79 1009.3
20260510042527 61 176 0.0 0.0 0.00 0.28 0.00 78 1009.2
20260510042027 61 176 0.0 0.0 0.00 0.28 0.00 78 1009.3
20260510041526 61 176 0.0 0.0 0.00 0.28 0.00 77 1009.4
20260510041028 61 176 0.0 0.0 0.00 0.28 0.00 76 1009.5
20260510040524 62 176 0.0 0.0 0.00 0.28 0.00 76 1009.5
20260510040029 62 176 0.0 0.0 0.00 0.32 0.28 75 1009.5
20260510035523 62 176 0.0 2.0 0.00 0.32 0.28 74 1009.4
20260510035023 62 176 0.0 2.0 0.00 0.32 0.28 73 1009.4
20260510034532 63 174 0.0 2.0 0.00 0.32 0.28 72 1009.5
20260510034023 63 174 0.0 2.0 0.00 0.32 0.28 72 1009.4
20260510033522 63 182 0.0 2.0 0.00 0.32 0.28 71 1009.5
20260510033022 63 194 0.0 2.0 0.00 0.32 0.28 72 1009.4
20260510032525 63 187 0.0 2.0 0.00 0.32 0.28 72 1009.4
20260510032022 63 169 0.0 2.0 0.00 0.32 0.28 72 1009.5
20260510031522 63 218 0.0 1.0 0.00 0.32 0.28 73 1009.5
20260510031021 62 218 0.0 0.0 0.00 0.32 0.28 73 1009.5
20260510030520 62 218 0.0 0.0 0.00 0.32 0.28 74 1009.4
20260510030020 61 218 0.0 0.0 0.00 0.36 0.28 75 1009.4
20260510025520 62 218 0.0 0.0 0.00 0.36 0.28 75 1009.5
20260510025019 62 218 0.0 0.0 0.00 0.36 0.28 75 1009.4
20260510024519 62 218 0.0 0.0 0.00 0.36 0.28 75 1009.4
20260510024018 62 218 0.0 0.0 0.00 0.36 0.28 74 1009.2
20260510023518 63 218 0.0 0.0 0.00 0.36 0.28 71 1009.2
20260510023018 63 218 0.0 0.0 0.00 0.36 0.28 70 1009.1
20260510022518 64 218 0.0 0.0 0.00 0.36 0.28 69 1009.0
20260510022017 65 218 0.0 0.0 0.00 0.36 0.28 67 1008.9
20260510021531 65 218 0.0 0.0 0.00 0.36 0.28 66 1008.7
20260510021019 66 218 0.0 0.0 0.00 0.36 0.28 64 1008.6
20260510020517 66 229 0.0 0.0 0.00 0.36 0.28 64 1008.5
20260510020017 66 229 0.0 0.0 0.00 0.42 0.28 65 1008.5
20260510015517 66 229 0.0 0.0 0.00 0.42 0.28 64 1008.4
20260510015021 66 229 0.0 0.0 0.00 0.42 0.28 64 1008.5
20260510014517 66 229 0.0 0.0 0.00 0.42 0.28 63 1008.5
20260510014018 67 229 0.0 0.0 0.00 0.42 0.28 62 1008.4
20260510013516 66 229 0.0 0.0 0.00 0.42 0.28 63 1008.4
20260510013016 67 229 0.0 0.0 0.00 0.42 0.28 61 1008.3
20260510012516 67 229 0.0 2.0 0.00 0.42 0.28 59 1008.2
20260510012016 68 231 0.0 2.0 0.00 0.42 0.28 59 1008.2
20260510011516 68 233 0.0 0.0 0.00 0.42 0.28 58 1008.1
20260510011015 68 248 0.0 0.0 0.00 0.42 0.28 59 1008.1
20260510010515 68 261 0.0 0.0 0.00 0.42 0.28 59 1007.9
20260510010015 68 284 0.0 0.0 0.00 0.43 0.28 59 1007.9
20260510005515 68 284 0.0 2.0 0.00 0.43 0.28 59 1007.9
20260510005015 69 284 0.0 2.0 0.00 0.43 0.28 57 1007.9
20260510004517 69 200 0.0 0.0 0.00 0.43 0.28 55 1007.8
20260510004019 70 202 0.0 0.0 0.00 0.43 0.28 54 1007.7
20260510003516 70 205 0.0 0.0 0.00 0.43 0.28 54 1007.6
20260510003015 70 285 0.0 2.0 0.00 0.43 0.28 53 1007.6
20260510002515 71 285 0.0 2.0 0.00 0.43 0.28 52 1007.5
20260510002014 71 219 0.0 2.0 0.00 0.43 0.28 52 1007.4
20260510001514 71 199 0.0 2.0 0.00 0.43 0.28 51 1007.3
20260510001017 72 222 0.0 2.0 0.00 0.43 0.28 51 1007.3
20260510000514 72 206 0.0 2.0 0.00 0.43 0.28 47 1007.2
20260510000018 73 285 0.0 2.0 0.00 0.43 0.28 48 1007.2
20260509235513 73 318 0.0 3.0 0.00 0.43 0.28 47 1007.1
20260509235013 73 273 0.0 3.0 0.00 0.43 0.28 47 1007.1
20260509234513 73 311 1.0 3.0 0.00 0.43 0.28 46 1007.0
20260509234012 73 183 0.0 2.0 0.00 0.43 0.28 48 1006.9
20260509233512 74 313 0.0 2.0 0.00 0.43 0.28 47 1006.9
20260509233012 74 253 0.0 8.0 0.00 0.43 0.28 48 1006.9
20260509232514 74 282 0.0 8.0 0.00 0.43 0.28 47 1006.8
20260509232012 74 285 0.0 4.0 0.00 0.43 0.28 44 1006.7
20260509231512 74 303 0.0 4.0 0.00 0.43 0.28 44 1006.6
20260509231011 74 336 0.0 3.0 0.00 0.43 0.28 45 1006.4
20260509230511 74 306 0.0 3.0 0.00 0.43 0.28 46 1006.4
20260509230011 74 163 0.0 6.0 0.00 0.43 0.28 44 1006.3
20260509225511 74 276 0.0 6.0 0.00 0.43 0.28 47 1006.4
20260509225012 74 234 0.0 4.0 0.00 0.43 0.28 45 1006.4
20260509224510 74 284 0.0 4.0 0.00 0.43 0.28 44 1006.4
20260509224011 75 201 0.0 4.0 0.00 0.43 0.28 42 1006.4
20260509223511 75 314 0.0 3.0 0.00 0.43 0.28 44 1006.4
20260509223010 75 298 0.0 3.0 0.00 0.43 0.28 46 1006.3
20260509222510 75 260 0.0 2.0 0.00 0.43 0.28 44 1006.3
20260509222010 74 152 0.0 6.0 0.00 0.43 0.28 45 1006.4
20260509221510 75 280 1.0 6.0 0.00 0.43 0.28 43 1006.3
20260509221009 75 205 0.0 4.0 0.00 0.43 0.28 43 1006.3
20260509220508 74 278 0.0 6.0 0.00 0.43 0.28 47 1006.4
20260509220010 74 207 0.0 6.0 0.00 0.43 0.28 45 1006.4
20260509215509 75 338 0.0 8.0 0.00 0.43 0.28 44 1006.5
20260509215009 75 281 0.0 8.0 0.00 0.43 0.28 45 1006.5
20260509214510 75 287 0.0 8.0 0.00 0.43 0.28 47 1006.5
20260509214011 74 189 0.0 8.0 0.00 0.43 0.28 45 1006.5
20260509213508 75 211 0.0 7.0 0.00 0.43 0.28 45 1006.4
20260509213007 75 127 0.0 7.0 0.00 0.43 0.28 44 1006.4
20260509212507 75 162 0.0 7.0 0.00 0.43 0.28 48 1006.5
20260509212007 74 59 1.0 7.0 0.00 0.43 0.28 47 1006.5
20260509211512 75 306 1.0 7.0 0.00 0.43 0.28 44 1006.5
20260509211005 74 213 0.0 7.0 0.00 0.43 0.28 48 1006.4
20260509210505 74 271 0.0 7.0 0.00 0.43 0.28 47 1006.5
20260509210010 74 278 1.0 5.0 0.00 0.43 0.28 48 1006.4
20260509205504 74 258 0.0 6.0 0.00 0.43 0.28 50 1006.4
20260509205003 75 301 0.0 3.0 0.00 0.43 0.28 49 1006.6
20260509204506 74 281 0.0 3.0 0.00 0.43 0.28 53 1006.5
20260509204003 74 269 0.0 4.0 0.00 0.43 0.28 51 1006.5
20260509203503 74 219 0.0 5.0 0.00 0.43 0.28 49 1006.6
20260509203005 74 207 1.0 5.0 0.00 0.43 0.28 48 1006.8
20260509202503 74 227 0.0 5.0 0.00 0.43 0.28 50 1006.6
20260509202006 75 157 0.0 7.0 0.00 0.43 0.28 46 1006.6
20260509201502 75 196 1.0 7.0 0.00 0.43 0.28 48 1006.6
20260509201001 75 225 0.0 3.0 0.00 0.43 0.28 51 1006.7
20260509200501 75 166 0.0 3.0 0.00 0.43 0.28 51 1006.7
20260509200105 74 112 0.0 4.0 0.00 0.43 0.28 52 1006.8
20260509195602 74 232 0.0 6.0 0.00 0.43 0.28 52 1007.0
20260509195059 74 209 0.0 9.0 0.00 0.43 0.28 53 1007.0
20260509194606 74 250 0.0 9.0 0.00 0.43 0.28 53 1007.1
20260509194102 74 194 1.0 9.0 0.00 0.43 0.28 51 1007.0
20260509193558 73 279 0.0 5.0 0.00 0.43 0.28 53 1007.1
20260509193059 74 277 0.0 5.0 0.00 0.43 0.28 52 1007.1
20260509192602 74 319 0.0 3.0 0.00 0.43 0.28 52 1007.0
20260509192057 74 113 0.0 3.0 0.00 0.43 0.28 50 1007.0
20260509191602 73 29 0.0 3.0 0.00 0.43 0.28 53 1007.2
20260509191057 73 159 0.0 3.0 0.00 0.43 0.28 54 1007.1
20260509190555 73 281 0.0 4.0 0.00 0.43 0.28 55 1007.0
20260509190108 73 163 0.0 4.0 0.00 0.43 0.28 54 1007.2
20260509185554 73 277 0.0 2.0 0.00 0.43 0.28 54 1007.3
20260509185054 73 259 0.0 2.0 0.00 0.43 0.28 60 1007.3
20260509184554 73 229 0.0 4.0 0.00 0.43 0.28 58 1007.3
20260509184052 73 149 0.0 4.0 0.00 0.43 0.28 55 1007.4
20260509183552 72 262 0.0 3.0 0.00 0.43 0.28 56 1007.3
20260509183051 72 277 0.0 7.0 0.00 0.43 0.28 59 1007.3
20260509182550 72 297 1.0 7.0 0.00 0.43 0.28 60 1007.5
20260509182050 72 258 0.0 2.0 0.00 0.43 0.28 60 1007.5
20260509181551 72 247 0.0 2.0 0.00 0.43 0.28 59 1007.6
20260509181049 71 300 0.0 8.0 0.00 0.43 0.28 59 1007.6
20260509180548 71 360 0.0 8.0 0.00 0.43 0.28 61 1007.6
20260509180052 71 199 1.0 6.0 0.00 0.43 0.28 59 1007.7
20260509175547 71 88 0.0 5.0 0.00 0.43 0.28 61 1007.7
20260509175049 71 140 0.0 5.0 0.00 0.43 0.28 61 1007.8
20260509174545 70 158 0.0 3.0 0.00 0.43 0.28 63 1007.6
20260509174044 70 296 0.0 6.0 0.00 0.43 0.28 62 1007.7
20260509173544 70 159 0.0 6.0 0.00 0.43 0.28 66 1007.8
20260509173045 70 267 0.0 2.0 0.00 0.43 0.28 66 1007.8
20260509172542 69 263 0.0 2.0 0.00 0.43 0.28 66 1007.8
20260509172041 69 284 0.0 6.0 0.00 0.43 0.28 65 1007.9
20260509171545 69 306 0.0 6.0 0.00 0.43 0.28 67 1008.0
20260509171039 69 132 0.0 4.0 0.00 0.43 0.28 68 1008.0
20260509170538 68 331 0.0 4.0 0.00 0.43 0.28 66 1007.9
20260509170038 68 313 0.0 4.0 0.00 0.43 0.28 66 1007.9
20260509165537 68 271 0.0 3.0 0.00 0.43 0.28 67 1008.0
20260509165038 68 306 0.0 3.0 0.00 0.43 0.28 68 1008.0
20260509164544 68 317 0.0 2.0 0.00 0.43 0.28 69 1007.9
20260509164036 67 13 0.0 3.0 0.00 0.43 0.28 68 1008.0
20260509163537 67 257 0.0 3.0 0.00 0.43 0.28 66 1008.0
20260509163036 67 134 0.0 5.0 0.00 0.43 0.28 71 1008.0
20260509162532 66 193 0.0 4.0 0.00 0.43 0.28 70 1008.0
20260509162033 66 277 0.0 2.0 0.00 0.43 0.28 70 1008.0
20260509161630 66 206 0.0 2.0 0.00 0.43 0.28 72 1007.8
20260509161028 65 199 0.0 2.0 0.00 0.43 0.28 72 1007.9
20260509160528 65 134 0.0 8.0 0.00 0.43 0.28 72 1007.8
20260509160128 65 111 0.0 8.0 0.00 0.43 0.28 69 1007.8
20260509155527 65 331 0.0 5.0 0.00 0.43 0.28 73 1007.8
20260509155024 65 141 1.0 5.0 0.00 0.43 0.28 72 1008.0
20260509154524 64 244 0.0 4.0 0.00 0.43 0.28 72 1007.8
20260509154024 64 145 1.0 5.0 0.00 0.43 0.28 73 1007.8